カタログに戻る

STARLINK-3270

運用中通信VLEO
NORAD 50199·PAYLOAD·🇺🇸 United States

打ち上げ Dec 18, 2021 から Vandenberg Space Force Base

Loading…

次のパス (今後24時間)

TLE

最新Source: CelesTrak SupGP

元期: Sep 14, 2026, 21:18 UTC

1 50199C 21125AV  26257.88798611  .00001854  00000+0  53035-4 0  2579
2 50199  53.1581  99.8998 0001351  80.2671 246.3247 15.35399142    16

AllMySatでSTARLINK-3270をリアルタイム追跡

Download on the App Store